EA3AGY-13 Weather Reports


time (UTC)temp
C
wind
direction
speed
KPH
gust
KPH
rain 1hr
cm
rain 24hr
cm
rain mn
cm
humidity
%
barometer
mb
20260504190852 10 90 0.0 0.0 0.00 0.00 0.00 33 1010.5
20260504184848 10 270 0.0 0.0 0.00 0.00 0.00 33 1010.4
20260504174834 11 270 0.0 4.8 0.00 0.00 0.00 34 1010.0
20260504173831 11 270 1.6 1.6 0.00 0.00 0.00 34 1010.1
20260504171825 9 90 0.0 1.6 0.00 0.00 0.00 32 1010.4
20260504150755 10 90 1.6 6.4 0.00 0.00 0.00 27 1011.0
20260504140741 14 0 0.0 1.6 0.00 0.00 0.00 22 1011.0
20260504110654 14 135 3.2 11.3 0.00 0.00 0.00 23 1011.6
20260504081614 10 45 0.0 1.6 0.00 0.00 0.00 39 1012.3
20260504044525 8 90 0.0 0.0 0.00 0.00 0.00 41 1011.9
20260504042519 7 90 1.6 4.8 0.00 0.00 0.00 44 1012.0
20260504041518 7 45 0.0 3.2 0.00 0.00 0.00 43 1012.0
20260504035512 7 45 0.0 1.6 0.00 0.00 0.00 40 1012.2
20260504022451 9 90 1.6 1.6 0.00 0.00 0.00 37 1012.3
20260504015444 9 45 0.0 1.6 0.00 0.00 0.00 37 1012.5
20260504013439 9 90 0.0 0.0 0.00 0.00 0.00 35 1012.7
20260504012438 10 45 0.0 0.0 0.00 0.00 0.00 36 1012.8
20260504003425 9 90 0.0 0.0 0.00 0.00 0.00 36 1013.0
20260504002423 10 45 0.0 0.0 0.00 0.00 0.00 35 1012.8
20260504001420 10 45 0.0 0.0 0.00 0.00 0.00 35 1013.0
20260504000419 10 45 0.0 0.0 0.00 0.00 0.00 35 1013.0
20260503230403 10 45 0.0 0.0 0.00 0.00 0.00 34 1013.3
20260503224359 10 0 0.0 0.0 0.00 0.00 0.00 34 1013.3
20260503220349 11 0 0.0 0.0 0.00 0.00 0.00 33 1013.6
20260503214345 10 315 0.0 0.0 0.00 0.00 0.00 34 1013.5
20260503213342 10 0 0.0 0.0 0.00 0.00 0.00 34 1013.5
20260503211339 11 45 0.0 0.0 0.00 0.00 0.00 34 1013.6
20260503204330 11 45 0.0 0.0 0.00 0.00 0.00 33 1013.6
20260503203328 10 90 0.0 0.0 0.00 0.00 0.00 33 1013.6
20260503201323 11 225 0.0 1.6 0.00 0.00 0.00 33 1013.5
20260503200321 11 0 0.0 0.0 0.00 0.00 0.00 33 1013.5
20260503195318 10 45 0.0 1.6 0.00 0.00 0.00 33 1013.3
20260503193314 11 0 0.0 1.6 0.00 0.00 0.00 32 1013.1